Вернуться в каталог

FENGYUN 1C DEB

АктивенSSO
NORAD 30263·DEBRIS·🇨🇳 China

Запущен May 10, 1999 с Taiyuan Satellite Launch Center

Loading…

Ближайшие Пролёты (ближайшие 24 часа)

TLE

СвежийSource: Space-Track

Эпоха: Sep 14, 2026, 19:23 UTC

1 30263U 99025XY  26257.80782766  .00001200  00000-0  74066-3 0  9994
2 30263  98.9493  12.7262 0142584 313.3611 210.2722 14.02422332998937

Отслеживайте FENGYUN 1C DEB в реальном времени с AllMySat

Download on the App Store